Weather History for KPIT - October, 2010

Change the Weather History Date:

Thursday, October 21, 2010

  Actual Average Record
Temperature  
Mean Temperature 50 °F 51 °F  
Max Temperature 57 °F 61 °F 82 °F (1949)
Min Temperature 43 °F 41 °F 23 °F (1952)
Degree Days  
Heating Degree Days 15 14  
Month to date heating degree days 231 233  
Since 1 July heating degree days 302 347  
Cooling Degree Days 0 0  
Month to date cooling degree days 2 6  
Year to date cooling degree days 1028 734  
Moisture  
Dew Point 33 °F    
Average Humidity 54    
Maximum Humidity 76    
Minimum Humidity 32    
Precipitation  
Precipitation 0.00 in 0.07 in 1.39 in (1970)
Month to date precipitation 1.28 1.50  
Year to date precipitation 29.48 31.32  
Snow  
Snow 0.00 in 0.00 in T in (1987)
Month to date snowfall 0.0 0.1  
Since 1 July snowfall 0.0 0.1  
Snow Depth 0.00 in    
Sea Level Pressure  
Sea Level Pressure 29.79 in    
Wind  
Wind Speed 13 mph (WNW)    
Max Wind Speed 30 mph    
Max Gust Speed 35 mph    
Visibility 10 miles    
Events      
T = Trace of Precipitation, MM = Missing Value Source: NWS Daily Summary

Daily Weather History Graph

Daily Weather History Graph

Search for Another Location

Airport or City:

Trip Planner

Search our weather history database for the weather conditions in past years. The results will help you decide how hot, cold, wet, or windy it might be!

Date:

Astronomy

Oct. 21, 2010 Rise Set
Actual Time 7:38 AM EDT 6:32 PM EDT
Civil Twilight 7:10 AM EDT 6:59 PM EDT
Nautical Twilight 6:38 AM EDT 7:31 PM EDT
Astronomical Twilight 6:07 AM EDT 8:03 PM EDT
Moon 5:31 PM EDT (10/21) 6:16 AM EDT (10/21)
Length of Visible Light 11h 49m
Length of Day
10h 53m
Waxing Gibbous, 98% of the Moon is Illuminated
Oct 21
Waxing Gibbous
Oct 22
Full
Oct 30
Last Quarter
Nov 6
New
Nov 13
First Quarter

Hourly Weather History & Observations

Time (EDT) Temp. Windchill Dew Point Humidity Pressure Visibility Wind Dir Wind Speed Gust Speed Precip Events Conditions
12:51 AM 53.6 °F - 32.0 °F 44% 29.68 in 10.0 mi SSW 8.1 mph - N/A   Overcast
1:51 AM 55.9 °F - 32.0 °F 40% 29.67 in 10.0 mi SW 11.5 mph - N/A   Overcast
2:51 AM 55.9 °F - 32.0 °F 40% 29.63 in 10.0 mi SW 15.0 mph 23.0 mph N/A   Overcast
3:51 AM 55.9 °F - 32.0 °F 40% 29.62 in 10.0 mi WSW 17.3 mph 24.2 mph N/A   Overcast
4:51 AM 55.9 °F - 33.1 °F 42% 29.64 in 10.0 mi West 17.3 mph 27.6 mph N/A   Overcast
5:27 AM 51.8 °F - 41.0 °F 67% 29.66 in 10.0 mi NNW 17.3 mph - N/A   Overcast
5:51 AM 50.0 °F - 39.9 °F 68% 29.69 in 10.0 mi NW 10.4 mph - N/A   Overcast
6:51 AM 48.0 °F - 37.9 °F 68% 29.72 in 10.0 mi WNW 11.5 mph - N/A   Mostly Cloudy
7:51 AM 44.1 °F 40.1 °F 37.9 °F 79% 29.74 in 10.0 mi West 6.9 mph - N/A   Scattered Clouds
8:51 AM 46.0 °F 41.4 °F 37.9 °F 73% 29.77 in 10.0 mi West 9.2 mph - N/A   Partly Cloudy
9:51 AM 50.0 °F - 39.0 °F 66% 29.79 in 10.0 mi NW 13.8 mph - N/A   Scattered Clouds
10:51 AM 51.1 °F - 36.0 °F 56% 29.80 in 10.0 mi WNW 15.0 mph - N/A   Scattered Clouds
11:51 AM 53.1 °F - 34.0 °F 48% 29.81 in 10.0 mi WNW 13.8 mph - N/A   Scattered Clouds
12:51 PM 53.1 °F - 28.9 °F 40% 29.81 in 10.0 mi West 13.8 mph - N/A   Mostly Cloudy
1:51 PM 54.0 °F - 28.0 °F 37% 29.81 in 10.0 mi NNW 16.1 mph - N/A   Mostly Cloudy
2:51 PM 55.9 °F - 27.0 °F 33% 29.80 in 10.0 mi WNW 11.5 mph 26.5 mph N/A   Mostly Cloudy
3:51 PM 55.0 °F - 26.1 °F 33% 29.81 in 10.0 mi NW 13.8 mph - N/A   Mostly Cloudy
4:51 PM 55.0 °F - 27.0 °F 34% 29.82 in 10.0 mi West 11.5 mph - N/A   Scattered Clouds
5:51 PM 54.0 °F - 28.0 °F 37% 29.84 in 10.0 mi WNW 20.7 mph 27.6 mph N/A   Mostly Cloudy
6:51 PM 50.0 °F - 30.9 °F 48% 29.87 in 10.0 mi WNW 13.8 mph - N/A   Scattered Clouds
7:51 PM 48.0 °F - 30.9 °F 52% 29.90 in 10.0 mi West 12.7 mph - N/A   Mostly Cloudy
8:51 PM 48.0 °F - 34.0 °F 58% 29.91 in 10.0 mi West 11.5 mph - N/A   Mostly Cloudy
9:51 PM 46.9 °F - 35.1 °F 63% 29.93 in 10.0 mi WNW 13.8 mph - N/A   Mostly Cloudy
10:51 PM 46.0 °F 40.6 °F 34.0 °F 63% 29.95 in 10.0 mi West 11.5 mph - N/A   Partly Cloudy
11:51 PM 43.0 °F 37.2 °F 34.0 °F 71% 29.96 in 10.0 mi WNW 10.4 mph - N/A   Partly Cloudy